THOR ABLESTAR DEB, 406

Orbit data source: Space-Track

THOR ABLESTAR DEB, 406 is space debris in LEO originally from a launch on Thu, 29 Jun 1961 UTC launched from the Air Force Eastern Test Range (AFETR). Debris objects in space refer to the collection of defunct objects orbiting the Earth. Examples of debris include non-operational satellites, rocket bodies, and fragments generated from explosions, collisions, or faulty payload assembly.

Loading next visibility...
Identifier
406, 1961-015EF
Orbit
LEO
Country
Flag of USUS
Related business
Manufacturer
Unknown
Mission
Spacecraft
Bus & Motor
Unknown
Mass
Unknown
Launch date (UTC)
1961-06-29 (64 years ago)
Launch vehicle
Unknown
Launch site
Air Force Eastern Test Range (AFETR)
Object type
Payload
Rocket body
Debris
Shape & HBR
Unknown
Radar Cross Section
Small (<0.1 m²)

Expand to show TLE details & history
Last TLE update: 1 day ago

TLE from 1 day ago
0 THOR ABLESTAR DEB
1 00406U 61015EF  25242.26060819  .00000640  00000-0  77730-3 0  9997
2 00406  66.7792 319.2280 0125881 232.4360 196.9012 13.69250125181360
Epoch: 2025-08-30T06:15Z
TLE epoch observation values (Epoch: 2025-08-30T06:15:16.547Z)
Latitude
59.15195°
Longitude
-67.67262°
Altitude
1,100.446 km
Speed
7.264 km/s
True Right ascension
00h 19m 22s
True Declination
59° 00' 26"
Sunlit
Object was in daylight at epoch
Visualization orbit readout
Latitude
Unknown
Longitude
Unknown
Altitude
Unknown
Speed
Unknown
Apparent Right ascension
Unknown
Apparent Declination
Unknown
Sunlit
N/A
Visualization observer readout
Local Sidereal Time
00:02:24
Azimuth
Unknown
Elevation
Unknown
Doppler factor
Unknown
Orbital elements
Apogee altitude
1,093.562 km
Perigee altitude
907.791 km
Semi-major axis
7,378.814 km
Eccentricity
0.01259
Inclination
66.7792°
RAAN
319.228°
Arg. of periapsis
232.436°
True anomaly
196.48806°
Mean anomaly
196.9012°
Eccentric anomaly
196.69401°
Mean motion
3.42423 °/min
Orbital period
105.13 mins
BSTAR
0.0007773
Loading maneuver chart data...
Computing Atmospheric mass density...

Documentation

Showing up to 5 results
|